Location: Fornova de Taro
(44.7000°N, 10.1000°E)
Time: 22:52:33
(UTC+00:00)

Cosmos 1269 Rocket - Pass Details

Date: 26 May 2022
Orbit: 773 x 778 km, 74.1° (Epoch: 26 June)

Event Time Altitude Azimuth Distance (km) Brightness Sun altitude
Rises 00:44:06 0° 340° (NNW) 3,259 8.0 -21.2°
Reaches altitude 10° 00:46:31 10° 343° (NNW) 2,328 7.2 -21.1°
Maximum altitude 00:51:47 72° 67° (ENE) 816 4.2 -20.7°
Enters shadow 00:55:06 23° 148° (SSE) 1,590 5.3 -20.5°
